Back to catalog

FENGYUN 1C DEB

AliveSSO
NORAD 31502·DEBRIS·🇨🇳 China

Launched May 10, 1999 from Taiyuan Satellite Launch Center

Loading…

Next Passes (next 24 hours)

TLE

FreshSource: Space-Track

Epoch: Sep 12, 2026, 05:28 UTC

1 31502U 99025BWR 26255.22797709  .00002290  00000-0  11557-2 0  9993
2 31502  99.0839 355.5624 0071380 177.0598 183.1009 14.15988945644434

Track FENGYUN 1C DEB in real time with AllMySat

Download on the App Store